Estación de El Cardal INIA

Ultimos registro cada 15 minutos 39
Estación Fecha / Hora Temperatura Humedad Lluvia Velocidad Dirección Radiación Presion
39 El Cardal INIA 07-05-2026 09:30 6,2 88,1 0 0 0 123 1017
38 El Cardal INIA 07-05-2026 09:15 5,5 92,3 0 0 0 95 1017
37 El Cardal INIA 07-05-2026 09:00 4,9 93,1 0 0 0 70 1017
36 El Cardal INIA 07-05-2026 08:45 4,1 94,3 0 0 0 50 1017
35 El Cardal INIA 07-05-2026 08:30 3,6 94,4 0 0 0 66 1017
34 El Cardal INIA 07-05-2026 08:15 3,1 96,7 0 0 0 34 1017
33 El Cardal INIA 07-05-2026 08:00 3,1 96,5 0 0 0 6 1017
32 El Cardal INIA 07-05-2026 07:45 3,3 95,9 0 0 0 2 1017
31 El Cardal INIA 07-05-2026 07:30 3,8 95,1 0 0 0 0 1017
30 El Cardal INIA 07-05-2026 07:15 4,1 94,7 0 0 0 0 1017
29 El Cardal INIA 07-05-2026 07:00 4,6 93 0 0 0 0 1017
28 El Cardal INIA 07-05-2026 06:45 4,7 91,6 0 0 0 0 1016
27 El Cardal INIA 07-05-2026 06:30 4,4 91 0 0 0 0 1016
26 El Cardal INIA 07-05-2026 06:15 4,6 89,4 0 0 0 0 1016
25 El Cardal INIA 07-05-2026 06:00 5,6 85,9 0 0 0 0 1016
24 El Cardal INIA 07-05-2026 05:45 6 81,6 0 1,8 244 0 1016
23 El Cardal INIA 07-05-2026 05:30 5,4 81,8 0 0,8 240 0 1016
22 El Cardal INIA 07-05-2026 05:15 4,8 85,7 0 0,3 241 0 1016
21 El Cardal INIA 07-05-2026 05:00 5,4 85,6 0 0,3 243 0 1016
20 El Cardal INIA 07-05-2026 04:45 6,3 79,6 0 0 0 0 1016
19 El Cardal INIA 07-05-2026 04:30 6,5 78,3 0 1,2 234 0 1016
18 El Cardal INIA 07-05-2026 04:15 6,6 77,8 0 0,2 238 0 1015
17 El Cardal INIA 07-05-2026 04:00 6,9 78,3 0 0,6 238 0 1015
16 El Cardal INIA 07-05-2026 03:45 7 77,2 0 1,5 240 0 1015
15 El Cardal INIA 07-05-2026 03:30 7 76,7 0 1,9 238 0 1015
14 El Cardal INIA 07-05-2026 03:15 6,8 77,5 0 1,7 239 0 1015
13 El Cardal INIA 07-05-2026 03:00 6,6 77,9 0 1,8 244 0 1015
12 El Cardal INIA 07-05-2026 02:45 6,4 83,1 0 1 242 0 1015
11 El Cardal INIA 07-05-2026 02:30 6 95 0 0 0 0 1015
10 El Cardal INIA 07-05-2026 02:15 5,6 95,6 0 0 0 0 1014
9 El Cardal INIA 07-05-2026 02:00 5,6 95,3 0 0 0 0 1014
8 El Cardal INIA 07-05-2026 01:45 5,4 95,7 0 0 0 0 1014
7 El Cardal INIA 07-05-2026 01:30 5,6 94,8 0 0 282 0 1014
6 El Cardal INIA 07-05-2026 01:15 6,9 90,5 0 0 243 0 1014
5 El Cardal INIA 07-05-2026 01:00 7,6 87 0 0 0 0 1014
4 El Cardal INIA 07-05-2026 00:45 7,6 87,1 0 0 0 0 1014
3 El Cardal INIA 07-05-2026 00:30 7,2 88,8 0 0 0 0 1013
2 El Cardal INIA 07-05-2026 00:15 6,9 89,9 0 0 0 0 1013
1 El Cardal INIA 07-05-2026 00:00 6,9 90,2 0 0 0 0 1013